TimeEST,TemperatureF,Dew PointF,Humidity,Sea Level PressureIn,VisibilityMPH,Wind Direction,Wind SpeedMPH,Gust SpeedMPH,PrecipitationIn,Events,Conditions,WindDirDegrees,DateUTC
12:53 AM,64.0,52.0,65,29.95,10.0,Variable,5.8,-,N/A,,Clear,0,2013-01-13 05:53:00
1:53 AM,62.1,52.0,70,29.93,10.0,SE,6.9,-,N/A,,Clear,140,2013-01-13 06:53:00
2:53 AM,62.1,52.0,70,29.92,10.0,Calm,Calm,-,N/A,,Clear,0,2013-01-13 07:53:00
3:53 AM,60.1,52.0,75,29.90,10.0,Calm,Calm,-,N/A,,Clear,0,2013-01-13 08:53:00
4:53 AM,62.1,52.0,70,29.89,10.0,South,3.5,-,N/A,,Clear,190,2013-01-13 09:53:00
5:53 AM,63.0,51.1,65,29.89,10.0,South,4.6,-,N/A,,Clear,190,2013-01-13 10:53:00
6:53 AM,59.0,51.1,75,29.94,10.0,Calm,Calm,-,N/A,,Clear,0,2013-01-13 11:53:00
7:53 AM,60.1,50.0,69,29.96,10.0,South,3.5,-,N/A,,Clear,190,2013-01-13 12:53:00
8:53 AM,63.0,50.0,63,29.99,10.0,SSW,6.9,-,N/A,,Overcast,200,2013-01-13 13:53:00
9:53 AM,64.9,50.0,58,29.99,10.0,Variable,6.9,-,N/A,,Overcast,0,2013-01-13 14:53:00
10:53 AM,66.0,50.0,56,29.99,10.0,SW,12.7,20.7,N/A,,Overcast,220,2013-01-13 15:53:00
11:53 AM,66.0,51.1,59,29.97,10.0,SW,6.9,16.1,N/A,,Overcast,220,2013-01-13 16:53:00
12:53 PM,66.9,51.1,57,29.94,10.0,SSW,8.1,19.6,N/A,,Mostly Cloudy,210,2013-01-13 17:53:00
1:53 PM,68.0,52.0,56,29.92,10.0,SSW,11.5,20.7,N/A,,Partly Cloudy,210,2013-01-13 18:53:00
2:53 PM,66.9,51.1,57,29.92,10.0,SSW,4.6,17.3,N/A,,Mostly Cloudy,210,2013-01-13 19:53:00
3:53 PM,66.9,51.1,57,29.93,10.0,SW,9.2,18.4,N/A,,Mostly Cloudy,220,2013-01-13 20:53:00
4:53 PM,66.0,51.1,59,29.92,10.0,SSW,12.7,-,N/A,,Clear,200,2013-01-13 21:53:00
5:53 PM,66.0,51.1,59,29.91,10.0,South,4.6,-,N/A,,Overcast,180,2013-01-13 22:53:00
6:53 PM,64.9,51.1,61,29.91,10.0,South,3.5,-,N/A,,Overcast,180,2013-01-13 23:53:00
7:53 PM,64.9,51.1,61,29.90,10.0,Calm,Calm,-,N/A,,Overcast,0,2013-01-14 00:53:00
8:53 PM,64.9,52.0,63,29.89,10.0,SSW,3.5,-,N/A,,Overcast,210,2013-01-14 01:53:00
9:53 PM,60.1,55.0,83,29.91,6.0,West,6.9,-,0.03,Rain,Rain,280,2013-01-14 02:53:00
10:15 PM,59.0,57.2,94,29.93,9.0,West,4.6,-,0.01,Rain,Light Rain,280,2013-01-14 03:15:00
10:30 PM,57.2,57.2,100,29.93,3.0,Calm,Calm,-,0.05,Rain,Light Rain,0,2013-01-14 03:30:00
10:48 PM,57.2,57.2,100,29.94,2.5,Calm,Calm,-,0.09,Rain,Rain,0,2013-01-14 03:48:00
10:53 PM,57.9,57.0,97,29.94,2.0,Calm,Calm,-,0.11,Rain,Light Rain,0,2013-01-14 03:53:00
10:59 PM,57.2,57.2,100,29.96,1.8,Calm,Calm,-,0.04,Rain,Heavy Rain,0,2013-01-14 03:59:00
11:07 PM,57.2,57.2,100,29.96,2.0,Calm,Calm,-,0.08,Rain,Rain,0,2013-01-14 04:07:00
11:17 PM,57.2,57.2,100,29.96,2.5,Calm,Calm,-,0.11,Rain,Rain,0,2013-01-14 04:17:00
11:21 PM,57.2,57.2,100,29.96,3.0,SSE,3.5,-,0.12,Rain,Rain,160,2013-01-14 04:21:00
11:53 PM,57.9,57.0,97,29.96,6.0,South,6.9,-,0.16,Rain,Light Rain,170,2013-01-14 04:53:00